Total_Precipitation_Accumulation
2.41 2.54 2.82 2.23 1.82 1.63 1.54 1.59 1.59 1.44 1.41 1.47 1.52 1.56 1.57 1.67 1.76 1.89 1.99 2.02 2.17 2.50 2.77 2.97 3.08 3.11 3.19 3.19 3.01 2.85 2.78 2.86 3.01 2.91 2.74 2.48 2.30 2.45 2.68 2.79 2.65 1.89 1.97
1.93 2.13 2.35 1.97 1.61 1.45 1.45 1.59 1.55 1.42 1.32 1.36 1.36 1.41 1.51 1.66 1.71 1.82 1.93 2.14 2.36 2.60 2.76 2.86 2.88 2.89 2.90 2.75 2.56 2.44 2.52 2.82 3.14 3.07 2.84 2.48 2.46 2.50 2.69 2.69 2.62 1.92 1.96
1.36 1.62 1.66 1.68 1.50 1.38 1.40 1.48 1.41 1.33 1.31 1.41 1.46 1.56 1.67 1.80 1.77 1.77 1.93 2.22 2.47 2.61 2.70 2.77 2.72 2.70 2.61 2.48 2.36 2.24 2.56 2.96 3.05 3.15 3.13 2.24 2.16 2.59 2.74 2.59 2.21 1.84 1.84
1.00 1.21 1.23 1.36 1.35 1.26 1.16 1.23 1.32 1.25 1.28 1.37 1.57 1.79 1.92 2.06 2.02 2.03 2.18 2.36 2.56 2.56 2.57 2.56 2.54 2.46 2.41 2.33 2.22 2.30 2.46 2.83 2.99 3.29 2.85 1.92 1.65 2.26 2.63 2.32 2.03 1.94 1.87
0.92 1.00 1.15 1.12 1.05 1.13 1.12 1.15 1.28 1.35 1.36 1.35 1.56 1.80 2.01 2.27 2.31 2.42 2.53 2.65 2.69 2.52 2.38 2.37 2.38 2.19 2.17 2.14 2.19 2.36 2.51 2.90 3.14 2.89 2.22 2.02 1.97 2.21 2.32 2.31 2.23 2.22 2.06
0.78 0.82 0.90 1.06 1.02 1.07 1.10 1.08 1.12 1.29 1.42 1.54 1.69 1.90 2.05 2.32 2.54 2.75 2.72 2.73 2.65 2.44 2.36 2.29 2.19 2.07 2.12 2.18 2.36 2.39 2.48 2.92 2.81 1.99 1.86 1.87 1.88 2.18 2.15 2.36 2.37 2.35 2.25
0.67 0.77 0.82 0.96 1.01 1.02 0.99 1.07 1.13 1.20 1.44 1.64 1.68 1.77 1.95 2.18 2.54 2.66 2.59 2.53 2.38 2.28 2.21 2.17 2.13 2.04 2.06 2.14 2.39 2.37 2.48 2.68 2.15 1.61 1.85 1.99 1.78 1.84 2.02 2.33 2.40 2.31 2.10
0.73 0.67 0.82 0.95 0.98 0.94 0.91 1.00 1.07 1.20 1.42 1.65 1.69 1.73 1.85 2.01 2.24 2.28 2.24 2.21 2.10 2.11 2.08 2.07 2.09 1.98 1.90 2.08 2.23 2.24 2.36 2.21 1.68 1.51 1.62 1.63 1.55 1.68 1.96 2.22 2.28 2.29 2.07
0.94 0.84 0.88 0.89 0.85 0.88 0.98 1.01 1.12 1.34 1.55 1.67 1.69 1.73 1.90 2.02 2.05 1.94 2.00 2.00 1.99 2.02 2.00 1.92 1.87 1.79 1.74 1.91 2.00 2.05 2.24 2.21 1.79 1.71 1.45 1.51 1.73 1.86 2.09 2.25 2.17 2.13 2.09
1.24 1.11 0.99 0.95 0.95 0.89 0.96 1.15 1.27 1.46 1.69 1.82 1.84 1.93 2.10 2.17 2.09 2.08 1.97 2.03 2.08 2.16 2.11 2.04 1.92 1.83 1.84 1.87 1.87 2.00 2.22 1.94 1.63 1.56 1.55 1.52 1.84 1.98 2.16 2.21 2.15 2.06 2.04
1.70 1.37 1.20 1.10 1.12 1.15 1.07 1.17 1.42 1.61 1.77 1.90 2.18 2.42 2.55 2.51 2.32 2.46 2.26 2.42 2.45 2.46 2.45 2.48 2.41 2.23 2.10 1.93 2.10 2.37 2.06 1.70 1.81 1.81 1.77 1.77 1.89 2.09 2.33 2.29 2.21 2.15 2.10
1.93 1.50 1.38 1.23 1.18 1.21 1.35 1.65 1.86 1.73 1.94 2.25 2.59 2.76 2.97 2.89 2.84 2.48 2.72 3.00 3.18 3.35 3.31 3.23 3.09 2.68 2.20 1.99 2.55 2.76 1.87 1.69 1.83 1.95 1.93 1.95 2.10 2.38 2.52 2.36 2.21 2.13 2.06
1.78 1.57 1.50 1.53 1.56 1.44 1.60 1.84 2.07 2.12 2.33 2.49 2.61 2.79 2.98 2.68 2.64 2.74 3.04 3.39 3.57 3.69 3.54 3.55 3.49 2.99 2.66 2.56 2.79 2.71 2.05 1.95 1.95 1.94 2.14 2.23 2.28 2.55 2.81 2.62 2.42 2.31 2.18
2.28 2.04 1.89 1.94 1.93 1.89 1.86 2.02 2.17 2.21 2.30 2.45 2.63 2.62 2.74 2.87 2.95 3.12 3.48 3.46 3.58 3.68 4.01 3.69 3.80 3.50 3.11 2.87 2.85 2.69 2.31 2.29 2.29 2.36 2.63 2.38 2.26 2.62 3.02 2.96 2.75 2.53 2.33
2.86 2.84 2.58 2.35 2.22 2.25 2.41 2.39 2.28 2.38 2.48 2.58 2.77 2.75 2.74 3.02 3.21 3.32 3.41 3.58 3.32 3.36 3.76 3.93 3.71 3.83 3.75 3.44 3.17 2.90 2.77 2.59 2.52 2.54 2.64 2.59 2.47 2.60 2.95 3.12 2.97 2.85 2.61
3.02 3.13 2.91 2.76 2.66 2.70 2.95 3.02 2.85 2.63 2.84 2.89 2.88 2.81 2.88 3.14 3.53 3.73 3.64 3.73 3.51 3.30 3.49 3.69 3.66 4.28 4.10 3.89 3.37 3.05 2.98 2.91 2.75 2.69 2.73 2.82 2.58 2.43 2.61 3.07 3.24 3.15 2.99
3.33 3.26 3.22 3.19 3.14 3.28 3.41 3.34 3.07 2.98 2.86 2.92 3.01 3.08 3.10 3.13 3.52 3.75 3.94 3.89 3.65 3.42 3.60 3.70 3.91 4.17 3.89 3.71 3.38 3.15 3.03 2.98 2.77 2.69 2.90 3.10 2.80 2.65 2.61 2.80 3.16 3.36 3.45
3.68 3.68 3.68 3.49 3.59 3.79 3.86 3.72 3.52 3.38 3.18 2.98 2.93 3.11 3.19 3.28 3.52 3.75 3.71 3.62 3.71 3.64 3.83 4.08 4.20 4.21 4.07 3.91 3.65 3.26 3.00 3.01 2.55 2.44 2.55 2.69 2.81 2.58 2.76 3.03 3.24 3.31 3.57
4.19 4.36 4.39 4.31 4.21 4.18 4.15 4.05 4.08 4.04 3.81 3.46 3.28 3.30 3.35 3.23 3.30 3.57 3.58 3.67 3.76 3.78 3.81 3.50 4.06 4.06 4.10 3.95 3.37 3.16 2.82 2.77 2.61 2.29 2.28 2.18 2.37 2.44 2.49 2.63 2.91 3.01 3.51
4.47 4.99 4.96 4.81 4.82 4.87 4.83 4.52 4.51 4.27 3.98 3.83 3.73 3.84 3.62 3.42 3.33 3.57 3.56 3.67 3.70 3.81 3.85 3.79 4.07 4.01 3.83 3.77 3.06 2.93 2.74 2.39 2.35 2.32 2.12 2.08 2.19 2.08 2.22 2.48 2.79 2.51 2.93
4.75 5.23 5.48 5.52 5.39 5.15 4.86 4.52 4.32 4.25 4.18 4.00 3.79 3.62 3.50 3.40 3.46 3.79 3.67 3.99 3.89 3.69 3.64 3.73 3.99 3.87 3.59 3.61 3.63 3.14 2.53 2.18 2.21 2.07 2.16 2.25 2.09 2.08 2.31 2.69 2.83 2.65 2.36
4.35 4.81 5.00 4.76 4.68 4.54 4.35 4.30 4.29 4.49 4.19 3.95 3.79 3.62 3.35 3.31 3.40 3.41 3.73 3.65 3.68 3.79 3.68 3.67 3.91 3.72 3.29 3.43 3.72 3.72 3.01 2.74 2.26 1.78 2.03 2.13 2.18 2.40 2.48 2.50 2.82 2.96 2.68
3.32 3.60 3.81 3.96 3.89 3.82 3.82 3.82 3.89 4.15 3.98 3.83 3.70 3.59 3.20 3.02 3.00 3.15 3.27 3.36 3.68 3.58 3.62 3.69 3.63 3.56 3.28 3.22 3.40 3.73 3.32 2.87 2.35 1.81 1.74 2.02 2.39 2.57 2.52 2.60 2.69 2.88 2.95
2.96 3.16 3.24 3.29 3.39 3.42 3.50 3.43 3.29 3.25 3.26 3.25 3.32 3.25 3.19 2.99 2.88 2.94 3.04 3.14 3.23 3.08 3.23 2.96 3.09 3.39 3.52 3.22 3.32 3.25 3.17 3.06 2.92 2.36 1.98 1.97 2.25 2.41 2.59 2.56 2.66 2.81 3.06
2.37 2.61 2.74 2.85 2.96 3.11 3.17 3.14 3.13 2.95 2.97 3.05 3.12 3.12 3.07 2.99 2.92 2.89 2.90 2.94 2.91 2.75 2.86 2.85 3.08 3.10 3.12 3.11 3.19 3.26 3.34 3.27 3.05 2.88 2.54 2.41 2.31 2.07 2.14 2.33 2.56 2.72 2.94
2.11 2.30 2.41 2.54 2.60 2.72 2.78 2.89 3.02 3.00 2.92 2.91 2.93 2.92 2.90 2.90 2.79 2.72 2.68 2.74 2.72 2.69 2.74 2.81 2.94 2.86 2.91 3.06 3.11 3.13 3.27 3.25 3.27 3.27 2.76 2.54 2.36 1.92 1.89 1.88 2.09 2.34 2.72